Location: Nagoya
(35.1814°N, 136.9064°E)
Time: 17:51:21
(UTC+09:00)

N. Korean satellite - Visible Passes

Search period start: 05 October 2022 00:00
Search period end: 15 October 2022 00:00
Orbit: 426 x 467 km, 97.3° (Epoch: 04 October)

Date Brightness Start Highest point End Pass type
(mag) Time Alt. Az. Time Alt. Az. Time Alt. Az.
05 Oct 6.3 05:15:14 10° N 05:18:27 63° WNW 05:21:40 10° SSW visible
06 Oct 8.3 04:39:29 10° NNE 04:42:27 32° E 04:45:25 10° SSE visible
08 Oct 6.6 04:59:42 10° NNE 05:02:58 70° ESE 05:06:12 10° S visible
09 Oct 9.3 04:24:17 10° NE 04:26:42 19° E 04:29:08 10° SE visible
10 Oct 6.4 05:19:58 10° N 05:23:10 52° WNW 05:26:22 10° SSW visible
11 Oct 8.0 04:43:48 10° NNE 04:46:53 37° E 04:49:57 10° SSE visible
12 Oct 9.9 04:09:14 10° ENE 04:10:22 11° E 04:11:31 10° ESE visible
13 Oct 6.4 05:03:27 10° NNE 05:06:44 81° E 05:10:02 10° S visible
14 Oct 9.1 04:27:36 10° NE 04:30:12 21° E 04:32:49 10° SSE visible
